Time,TemperatureF,DewpointF,PressureIn,WindDirection,WindDirectionDegrees,WindSpeedMPH,WindSpeedGustMPH,Humidity,HourlyPrecipIn,Conditions,Clouds,dailyrainin,SoftwareType,DateUTC
2013-07-03 00:00:00,59.0,52.1,30.23,ENE,68,0.0,0.0,78,0.00,,,-99.99,Weather View 32 v60,2013-07-03 05:00:00,
2013-07-03 01:00:00,58.0,51.8,30.23,NE,45,0.0,0.0,80,0.00,,,-99.99,Weather View 32 v60,2013-07-03 06:00:00,
2013-07-03 01:30:00,59.0,52.8,30.22,ESE,112,0.0,0.0,80,0.00,,,-99.99,Weather View 32 v60,2013-07-03 06:30:00,
2013-07-03 02:00:00,59.0,52.8,30.22,North,0,0.0,0.0,80,0.00,,,-99.99,Weather View 32 v60,2013-07-03 07:00:00,
2013-07-03 02:30:00,59.0,52.8,30.20,NNE,22,0.0,0.0,80,0.00,,,-99.99,Weather View 32 v60,2013-07-03 07:30:00,
2013-07-03 03:30:00,59.0,53.5,30.20,ENE,68,0.0,0.0,82,0.00,,,-99.99,Weather View 32 v60,2013-07-03 08:30:00,
2013-07-03 04:00:00,58.0,52.2,30.21,ENE,68,0.0,0.0,81,0.00,,,-99.99,Weather View 32 v60,2013-07-03 09:00:00,
2013-07-03 04:30:00,58.0,52.5,30.21,ENE,68,0.0,0.0,82,0.00,,,-99.99,Weather View 32 v60,2013-07-03 09:30:00,
2013-07-03 05:00:00,58.0,52.2,30.23,ENE,68,0.0,0.0,81,0.00,,,-99.99,Weather View 32 v60,2013-07-03 10:00:00,
2013-07-03 05:30:00,59.0,53.2,30.24,NE,45,0.0,0.0,81,0.00,,,-99.99,Weather View 32 v60,2013-07-03 10:30:00,
2013-07-03 06:00:00,59.0,53.2,30.24,NNE,22,0.0,0.0,81,0.00,,,-99.99,Weather View 32 v60,2013-07-03 11:00:00,
2013-07-03 06:30:00,60.0,54.1,30.24,East,90,0.0,0.0,81,0.00,,,-99.99,Weather View 32 v60,2013-07-03 11:30:00,
2013-07-03 07:00:00,60.0,53.1,30.25,ESE,112,0.0,0.0,78,0.00,,,-99.99,Weather View 32 v60,2013-07-03 12:00:00,
2013-07-03 07:30:00,61.0,54.1,30.24,NE,45,0.0,0.0,78,0.00,,,-99.99,Weather View 32 v60,2013-07-03 12:30:00,
2013-07-03 08:00:00,62.0,55.4,30.24,NE,45,0.0,0.0,79,0.00,,,-99.99,Weather View 32 v60,2013-07-03 13:00:00,
2013-07-03 08:30:00,64.0,56.6,30.25,East,90,0.0,0.0,77,0.00,,,-99.99,Weather View 32 v60,2013-07-03 13:30:00,
2013-07-03 09:00:00,64.0,56.6,30.25,ESE,112,0.0,0.0,77,0.00,,,-99.99,Weather View 32 v60,2013-07-03 14:00:00,
2013-07-03 09:30:00,64.0,57.7,30.25,East,90,0.0,0.0,80,0.00,,,-99.99,Weather View 32 v60,2013-07-03 14:30:00,
2013-07-03 10:00:00,63.0,58.4,30.24,East,90,0.0,0.0,85,0.00,,,-99.99,Weather View 32 v60,2013-07-03 15:00:00,
2013-07-03 11:00:00,65.0,60.0,30.24,ESE,112,0.0,0.0,84,0.00,,,-99.99,Weather View 32 v60,2013-07-03 16:00:00,
2013-07-03 11:30:00,65.0,59.7,30.24,East,90,0.0,0.0,83,0.00,,,-99.99,Weather View 32 v60,2013-07-03 16:30:00,
2013-07-03 12:00:00,66.0,60.3,30.23,ESE,112,0.0,0.0,82,0.00,,,-99.99,Weather View 32 v60,2013-07-03 17:00:00,
2013-07-03 13:00:00,70.0,61.3,30.22,SE,135,0.0,0.0,74,0.00,,,-99.99,Weather View 32 v60,2013-07-03 18:00:00,
2013-07-03 13:30:00,70.0,61.7,30.21,NE,45,0.0,0.0,75,0.00,,,-99.99,Weather View 32 v60,2013-07-03 18:30:00,
2013-07-03 14:00:00,70.0,61.3,30.21,ESE,112,0.0,0.0,74,0.00,,,-99.99,Weather View 32 v60,2013-07-03 19:00:00,
2013-07-03 14:30:00,72.0,62.8,30.21,East,90,0.0,0.0,73,0.00,,,-99.99,Weather View 32 v60,2013-07-03 19:30:00,
2013-07-03 15:00:00,74.0,62.7,30.21,East,90,0.0,0.0,68,0.00,,,-99.99,Weather View 32 v60,2013-07-03 20:00:00,
2013-07-03 15:30:00,73.0,61.8,30.20,NE,45,0.0,0.0,68,0.00,,,-99.99,Weather View 32 v60,2013-07-03 20:30:00,
2013-07-03 16:00:00,73.0,61.4,30.19,South,180,0.0,0.0,67,0.00,,,-99.99,Weather View 32 v60,2013-07-03 21:00:00,
2013-07-03 17:00:00,72.0,61.2,30.18,ENE,68,0.0,0.0,69,0.00,,,-99.99,Weather View 32 v60,2013-07-03 22:00:00,
2013-07-03 17:30:00,72.0,61.6,30.16,NE,45,0.0,0.0,70,0.00,,,-99.99,Weather View 32 v60,2013-07-03 22:30:00,
2013-07-03 18:00:00,73.0,62.6,30.14,NE,45,0.0,0.0,70,0.00,,,-99.99,Weather View 32 v60,2013-07-03 23:00:00,
2013-07-03 19:00:00,72.0,62.0,30.13,ESE,112,0.0,0.0,71,0.00,,,-99.99,Weather View 32 v60,2013-07-04 00:00:00,
2013-07-03 19:30:00,71.0,61.5,30.13,NE,45,0.0,0.0,72,0.00,,,-99.99,Weather View 32 v60,2013-07-04 00:30:00,
2013-07-03 20:00:00,71.0,61.9,30.14,ESE,112,0.0,0.0,73,0.00,,,-99.99,Weather View 32 v60,2013-07-04 01:00:00,
2013-07-03 20:30:00,70.0,61.7,30.13,South,180,0.0,0.0,75,0.00,,,-99.99,Weather View 32 v60,2013-07-04 01:30:00,
2013-07-03 21:00:00,69.0,61.8,30.14,South,180,0.0,0.0,78,0.00,,,-99.99,Weather View 32 v60,2013-07-04 02:00:00,
2013-07-03 21:30:00,68.0,62.3,30.14,SSW,202,0.0,0.0,82,0.00,,,-99.99,Weather View 32 v60,2013-07-04 02:30:00,
2013-07-03 22:00:00,68.0,63.0,30.14,SSW,202,0.0,0.0,84,0.00,,,-99.99,Weather View 32 v60,2013-07-04 03:00:00,
2013-07-03 22:30:00,67.0,63.3,30.14,WSW,248,0.0,0.0,88,0.00,,,-99.99,Weather View 32 v60,2013-07-04 03:30:00,
2013-07-03 23:00:00,67.0,63.6,30.14,SSW,202,0.0,0.0,89,0.00,,,-99.99,Weather View 32 v60,2013-07-04 04:00:00,
2013-07-03 23:30:00,67.0,63.6,30.15,West,270,0.0,0.0,89,0.00,,,-99.99,Weather View 32 v60,2013-07-04 04:30:00,